Location: *
(28.3744°N, 81.5492°W)
Time: 03:08:35
(UTC+00:00)

CZ-2C R/B - Pass Details

Date: 15 June 2025
Orbit: 663 x 775 km, 98.4° (Epoch: 11 July)

Event Time Altitude Azimuth Distance (km) Brightness Sun altitude
Rises 08:54:03 0° 18° (NNE) 3,033 6.6 -18.1°
Reaches altitude 10° 08:56:19 10° 23° (NNE) 2,128 5.8 -17.8°
Maximum altitude 09:00:52 55° 101° (E) 834 2.9 -17.0°
Enters shadow 09:05:20 11° 178° (S) 2,100 4.4 -16.2°
